Weather History for Monticello, KY

Change the Weather History Date:

Thursday, January 17, 2013

  Actual Average Record
Temperature  
Mean Temperature 31 °F -  
Max Temperature 38 °F 43 °F 69 °F (1974)
Min Temperature 21 °F 24 °F -12 °F (1977)
Degree Days  
Heating Degree Days 34    
Moisture  
Dew Point 29 °F    
Average Humidity 86    
Maximum Humidity 100    
Minimum Humidity 68    
Precipitation  
Precipitation 0.00 in - - ()
Sea Level Pressure  
Sea Level Pressure 30.22 in    
Wind  
Wind Speed 6 mph (NNE)    
Max Wind Speed 16 mph    
Max Gust Speed 24 mph    
Averages and records for this station are not official NWS values.
T = Trace of Precipitation, MM = Missing Value Source: NWS Daily Summary

Daily Weather History Graph

Daily Weather History Graph

Search for Another Location

Airport:

Trip Planner

Search our weather history database for the weather conditions in past years. The results will help you decide how hot, cold, wet, or windy it might be!

Date:

Astronomy

Jan. 17, 2013 Rise Set
Actual Time 6:50 AM CST 4:49 PM CST
Civil Twilight 6:22 AM CST 5:17 PM CST
Nautical Twilight 5:50 AM CST 5:48 PM CST
Astronomical Twilight 5:19 AM CST 6:19 PM CST
Moon 10:08 AM CST (1/17) 11:27 PM CST (1/17)
Length of Visible Light 10h 54m
Length of Day
9h 58m
Waxing Crescent, 38% of the Moon is Illuminated
Jan 17
Waxing Crescent
Jan 18
First Quarter
Jan 26
Full
Feb 3
Last Quarter
Feb 10
New

Hourly Weather History & Observations

Time (CST) Temp. Windchill Dew Point Humidity Pressure Visibility Wind Dir Wind Speed Gust Speed Precip Events Conditions
12:23 AM 35.6 °F - 35.6 °F 100% 30.14 in - Calm Calm - N/A   Overcast
12:42 AM 35.6 °F 29.9 °F 35.6 °F 100% 30.14 in - North 6.9 mph - N/A   Overcast
12:56 AM 36.0 °F 31.1 °F 36.0 °F 100% 30.18 in - North 5.8 mph - N/A   Mostly Cloudy
1:56 AM 34.9 °F 32.0 °F 34.9 °F 100% 30.18 in - North 3.5 mph - N/A   Overcast
2:56 AM 34.9 °F - 34.0 °F 97% 30.16 in - Calm Calm - N/A   Overcast
3:56 AM 34.9 °F 29.9 °F 34.0 °F 97% 30.15 in - North 5.8 mph - N/A   Overcast
4:56 AM 34.9 °F 28.3 °F 30.0 °F 82% 30.16 in - NNE 8.1 mph - N/A   Overcast
6:56 AM 34.0 °F 27.2 °F 27.1 °F 76% 30.14 in - NE 8.1 mph - N/A   Clear
7:56 AM 34.0 °F 28.8 °F 28.0 °F 79% 30.20 in - North 5.8 mph - N/A   Mostly Cloudy
8:56 AM 32.9 °F 29.8 °F 28.0 °F 82% 30.16 in - NE 3.5 mph - 0.00 in   Clear
9:56 AM 34.0 °F 25.5 °F 29.1 °F 82% 30.17 in - NNE 11.5 mph - N/A   Overcast
10:56 AM 34.0 °F 25.0 °F 29.1 °F 82% 30.14 in - North 12.7 mph - N/A   Overcast
11:32 AM 33.8 °F 24.3 °F 28.4 °F 81% 30.12 in - NNE 13.8 mph - N/A   Overcast
11:56 AM 34.9 °F 25.3 °F 30.0 °F 82% 30.14 in - NNE 15.0 mph 19.6 mph N/A   Mostly Cloudy
12:56 PM 36.9 °F 27.5 °F 30.0 °F 76% 30.11 in - North 16.1 mph - N/A   Mostly Cloudy
1:56 PM 37.9 °F 28.9 °F 30.0 °F 73% 30.10 in - NNE 16.1 mph 24.2 mph N/A   Clear
2:56 PM 37.9 °F 30.5 °F 30.0 °F 73% 30.14 in - North 11.5 mph - N/A   Clear
3:56 PM 38.8 °F 30.4 °F 29.1 °F 68% 30.20 in - NNE 15.0 mph - N/A   Clear
4:56 PM 36.9 °F 29.6 °F 28.0 °F 70% 30.24 in - North 10.4 mph - N/A   Clear
5:56 PM 35.6 °F 28.0 °F 28.4 °F 75% 30.25 in - North 10.4 mph - N/A   Clear
6:56 PM 32.9 °F 28.5 °F 27.1 °F 79% 30.34 in - North 4.6 mph - N/A   Clear
7:56 PM 28.0 °F - 25.2 °F 89% 30.37 in - Calm Calm - N/A   Clear
8:56 PM 25.2 °F - 24.1 °F 96% 30.41 in - Calm Calm - N/A   Clear
9:56 PM 25.2 °F - 24.1 °F 96% 30.43 in - Calm Calm - N/A   Clear
10:56 PM 24.1 °F - 24.1 °F 100% 30.44 in - Calm Calm - N/A   Clear
11:56 PM 21.0 °F - 21.0 °F 100% 30.47 in - Calm Calm - N/A   Clear